Regional Weather Roundup
Issued by NWS Pendleton, OR

Home | Current Version | Previous Version | Text Only | Print | Product List | Glossary On
Versions: 1 2 3 4 5 6 7 8 9 10 11 12 13 14 15 16 17 18 19 20 21 22 23 24 25 26 27 28 29 30 31 32 33 34 35 36 37 38 39 40 41 42 43 44 45 46 47 48 49 50
000
ASUS46 KPDT 220525
RWRPDT
PENDLETON REGIONAL WEATHER ROUNDUP
NATIONAL WEATHER SERVICE PENDLETON OREGON
1000 PM PDT TUE OCT 21 2014

NOTE: FAIR INDICATES FEW OR NO CLOUDS BELOW 12,000 FEET WITH NO
SIGNIFICANT WEATHER AND/OR OBSTRUCTIONS TO VISIBILITY.

# INDICATES UNOFFICIAL STATION AND DATA

WAZ520-220610-
EAST SLOPES OF WASHINGTON CASCADES

CITY            SKY/WX      TMP DP  RH  WIND    PRES   REMARKS
#BUMPING DAM    N/A         46  N/A N/A S2      N/A
#CLE ELUM HS    N/A         41  40  96  CALM    29.87S
#CLE ELUM 2NW   N/A         40  40  100 W1      N/A
#CLE ELUM LAKE  N/A         44  42  93  CALM    29.85F
#CLIFFDEL 2NW   N/A         44  41  89  SW1     N/A
#GLENWOOD       N/A         42  40  93  CALM    29.91S
#MANASTASH CYN  N/A         41  36  82  CALM    29.89F
#NELSON         N/A         41  40  96  CALM    29.92R
#NELSON 3SW     N/A         41  40  96  CALM    30.09R
#NILE           N/A         43  41  93  CALM    29.16F
#RONALD 2NW     N/A         45  43  93  NE1     29.77F
#SNOWDEN        N/A         42  36  79  CALM    N/A
#TEANAWAY 4NE   N/A         43  42  96  CALM    N/A
#TROUT LAKE HS  N/A         47  47  100 CALM    N/A
#TROUT LAKE 1NE N/A         46  45  96  CALM    29.92F
$$

WAZ521-220610-
SIMCOE HIGHLANDS

CITY            SKY/WX      TMP DP  RH  WIND    PRES   REMARKS
#BICKLETON HS   N/A         44  36  73  W3      30.03S
#CENTERVILLE 4W N/A         49  43  80  N2      29.68F
#CENTERVILLE 1SWN/A         42  38  86  CALM    29.91F
#GOLDENDALE     N/A         48  42  80  CALM    N/A
#GOLDENDALE 1NE N/A         48  42  80  CALM    N/A
#GOLDENDALE 1S  N/A         48  43  83  CALM    29.90F
#GOLDENDALE 5WNWN/A         46  42  86  CALM    29.91S
#GOODNOE HILLS  N/A         50  43  77  N3      29.87S
#LYLE 6NE       N/A         49  44  83  CALM    29.88F
$$

WAZ026-220610-
KITTITAS VALLEY

CITY            SKY/WX      TMP DP  RH  WIND    PRES   REMARKS
ELLENSBURG AP   PTCLDY      47  40  76  NE7     29.90F
#ELLENSBURG CWU N/A         46  41  83  CALM    29.86F
#ELLENSBURG 3NE N/A         44  40  86  E5      29.91F
#ELLENSBURG     N/A         46  45  96  CALM    N/A
#KITTITAS 3S    N/A         41  38  89  CALM    29.89S
#THORP 6N       N/A         45  41  86  E7      29.92R
$$

WAZ027-220610-
YAKIMA VALLEY

CITY            SKY/WX      TMP DP  RH  WIND    PRES   REMARKS
SUNNYSIDE AP    CLEAR       45  41  86  CALM    29.93F
YAKIMA AIRPORT  PTCLDY      50  41  71  CALM    29.92S
#COWICHE 1N     N/A         46  39  76  CALM    30.05F
#DONALD 2NE     N/A         51  41  68  SW1     30.24F
#GRANDVIEW      N/A         47  41  79  CALM    29.93F
#MABTON         N/A         50  43  77  CALM    29.92F
#MOXEE 2E       N/A         54  37  52  SE1     29.89F
#NACHES 2SW     N/A         45  41  86  CALM    29.92S
#OUTLOOK DOT    N/A         N/A N/A N/A N1      N/A
#SELAH 8E       N/A         48  42  80  S8      N/A
#TERRACE HTS    N/A         50  44  80  CALM    29.88F
#TOPPENISH      N/A         50  43  77  CALM    29.83F
#WAPATO 4NE     N/A         51  41  68  SW1     30.24F
#WEST VALLEY    N/A         45  40  82  CALM    29.89F
#W YAKIMA       N/A         49  43  80  CALM    29.91F
#WHITE SWAN 5E  N/A         52  43  71  E1      29.91F
#WILEY CITY 3W  N/A         45  32  60  CALM    29.96S
$$

WAZ028-220610-
LOWER COLUMBIA BASIN...WASHINGTON

CITY            SKY/WX      TMP DP  RH  WIND    PRES   REMARKS
PASCO           CLEAR       50  46  86  CALM    29.95S
PROSSER AWOS    N/A         46  43  89  N6      29.96S
#BASIN CITY 5SW N/A         50  45  83  CALM    29.93F
#BENTON CITY    N/A         49  43  80  CALM    29.84S
#CONNELL 5N     N/A         47  41  79  CALM    29.93F
#CONNELL 5NW    N/A         49  42  77  CALM    29.90F
#ELTOPIA        N/A         49  44  83  CALM    29.90F
#ELTOPIA 6NW    N/A         52  45  77  SW3     28.90F
#KENNEWICK 3S   N/A         54  44  69  CALM    29.94F
#PASCO-BROADMOORN/A         53  45  74  CALM    29.83S
#PATERSON       N/A         53  45  74  CALM    29.92F
#PROSSER        N/A         56  41  57  S5      29.92S
#SAGEMOOR 2W    N/A         52  45  77  CALM    29.79S
#TOUCHET 2S     N/A         42  40  93  CALM    29.93S
#WEST PASCO     N/A         53  44  71  CALM    29.94S
$$

WAZ029-220610-
FOOTHILLS OF THE BLUES...WASHINGTON

CITY            SKY/WX      TMP DP  RH  WIND    PRES   REMARKS
WALLA WALLA AP  CLEAR       52  41  66  E8      29.95F
#LOWDEN 2SE     N/A         45  41  86  E2      29.92S
#PLEASANT VIEW 1N/A         50  40  68  S3      29.99S
#PRESCOTT       N/A         42  39  89  CALM    29.94S
#SUDBURY        N/A         44  N/A N/A CALM    N/A
#WHITMAN COLLEGEN/A         54  41  61  E5      29.98F
#WAITSBURG 8N   N/A         50  30  46  SE6     29.91S
#WALLA WALLA 5E N/A         49  39  68  CALM    N/A
#WALLA WALLA U  N/A         50  44  80  CALM    29.93F
#WHITMAN MISSIONN/A         45  41  86  CALM    29.95F
$$

WAZ030-220610-
BLUE MOUNTAINS...WASHINGTON

CITY            SKY/WX      TMP DP  RH  WIND    PRES   REMARKS
$$

ORZ009-041-WAZ024-220610-
COLUMBIA RIVER GORGE

CITY            SKY/WX      TMP DP  RH  WIND    PRES   REMARKS
HOOD RIVER AP   CLOUDY      48  48  100 CALM    29.93F
THE DALLES AP   CLOUDY      51  46  83  CALM    29.92F
#ARLINGTON AIRPON/A         50  44  80  CALM    29.98F
#ARLINGTON HS   N/A         50  44  80  S2      29.85F
#CELILO DOT     N/A         55  45  69  S1      N/A
#LYLE           N/A         53  48  83  NE2     29.93F
#MARYHILL 2W    N/A         54  49  83  CALM    N/A
#MOSIER 1S      N/A         50  44  80  CALM    N/A
#MURDOCK        N/A         54  50  86  E1      29.94F
#RUFUS DOT      N/A         54  42  64  NE2     N/A

$$

ORZ510-220610-
NORTH CENTRAL OREGON

CITY            SKY/WX      TMP DP  RH  WIND    PRES   REMARKS
#CHENOWITH 1W   N/A         49  45  86  E2      N/A
#COW CYN RST AREN/A         46  37  71  SE3     N/A
#DUFUR 9E       N/A         50  40  68  SE13    29.96F
#GRASS VALLEY   N/A         42  39  89  S2      N/A
#GRASS VALLEY 1SN/A         46  39  76  CALM    29.96F
#KENT DOT       N/A         42  32  67  SE7     N/A
#MAUPIN SCHOOL  N/A         51  40  66  CALM    28.82F
#MORO SCHOOL    N/A         44  41  89  CALM    29.96S
#SHANIKO 5WSW   N/A         45  30  55  SE13    N/A    WCI 39
#SHANIKO 4NW    N/A         44  36  73  S13     29.94F WCI 38
#TYGH VALLEY 2NEN/A         49  41  74  W1      29.92F
#WAPANITIA AIRPON/A         43  38  82  CALM    29.94F
#WASCO DOT      N/A         47  41  79  E2      N/A
#WASCO 5NE      N/A         47  40  76  S3      29.93S
$$

ORZ511-220610-
CENTRAL OREGON

CITY            SKY/WX      TMP DP  RH  WIND    PRES   REMARKS
BEND AIRPORT    MOCLDY      46  34  63  SE6     29.99S
MADRAS AIRPORT  PTCLDY      45  37  73  S3      29.97F
PRINEVILLE AP   MOCLDY      45  37  73  S5      29.99S
REDMOND AIRPORT MOCLDY      44  35  70  S8      29.97S
#BEND 6E        N/A         44  33  65  CALM    29.93F
#BEND 1SW       N/A         43  37  79  S1      N/A
#BEND-KIM LN    N/A         44  37  76  SW1     29.95S
#CROOKED RVR RANN/A         49  38  66  CALM    29.95S
#CULVER         N/A         52  38  59  E10     29.91F
#LAKE BILLY CHINN/A         48  23  37  S6      30.01F
#POWELL BUTTE 3EN/A         44  36  73  SE3     N/A
#POWELL BUTTE   N/A         50  35  56  S13     29.61F
#PRINEVILLE 3N  N/A         43  38  82  CALM    29.94S
#WARM SPRINGS   N/A         45  39  79  CALM    29.92F


ORZ509-220610-
EAST SLOPES OF OREGON CASCADES

CITY            SKY/WX      TMP DP  RH  WIND    PRES   REMARKS
#BLUE BOX PASS  N/A         44  -6  12  CALM    N/A
#CAMP SHERMAN   N/A         38  35  89  CALM    29.99F
#LA PINE DOT    N/A         41  32  70  SE2     N/A
#LA PINE 4NW    N/A         37  33  85  CALM    30.06R
#LAVA BUTTE DOT N/A         37  33  85  CALM    N/A
#SISTERS AIRPOR N/A         39  38  96  CALM    29.91S
#SISTERS ODOT   N/A         38  N/A N/A CALM    N/A
#SISTERS 1NW    N/A         38  33  82  N5      N/A
#SISTERS 3N     N/A         38  32  79  CALM    29.98S
#SUNRIVER       N/A         41  36  82  S1      29.89S
#SUNRIVER AP    N/A         42  36  79  SW1     29.97S
#SUTTLE LK DOT  N/A         37  37  100 SW15    N/A    WCI 28
#TUMALO 3W      N/A         48  36  63  S8      29.85S
#WANOGA BUTTE D N/A         34  33  96  W9      N/A

$$

ORZ044-220610-
LOWER COLUMBIA BASIN...OREGON

CITY            SKY/WX      TMP DP  RH  WIND    PRES   REMARKS
HERMISTON       CLEAR       47  40  76  S7      29.94F
#BOARDMAN SCHOOLN/A         65  45  48  W3      29.94S
#BOARDMAN 3W    N/A         46  42  86  SW1     29.65F
#BOARDMAN 8SW   N/A         48  43  83  W2      29.93F
#ECHO 8SW       N/A         48  39  71  SW1     29.91F
#IONE SCHOOL    N/A         46  34  63  CALM    29.93F
#IRRIGON 4NW    N/A         49  46  89  CALM    N/A
#UMATILLA SCHOOLN/A         47  47  100 SE1     29.98S
#UMATILLA       N/A         50  42  74  CALM    29.92S
$$

ORZ507-220610-
NORTHERN FOOTHILLS OF THE BLUES

CITY            SKY/WX      TMP DP  RH  WIND    PRES   REMARKS
PENDLETON AIRPT CLEAR       48  39  71  SE7     29.95F
#ADAMS 3WNW     N/A         44  39  82  CALM    29.95F
#ATHENA         N/A         49  40  71  CALM    29.96F
#CAYUSE         N/A         54  40  59  CALM    29.93F
#HELIX SCHOOL   N/A         41  38  89  CALM    29.95S
#HELIX 3N       N/A         46  39  76  SE9     29.93S
#HOLDMAN 5SE    N/A         45  40  82  CALM    29.96S
#HOLDMAN 6E     N/A         46  40  79  NW1     29.76F
#M-F FERNDALE   N/A         51  42  71  CALM    29.95F
#M-F GROVE ELEM N/A         53  39  59  CALM    29.94F
#M-FREEWATER 5SEN/A         51  41  68  E8      29.96S
#PENDLETON DNTN N/A         48  36  63  CALM    28.76S
#PDT AQUATIC CTRN/A         49  34  56  CALM    29.94S
#PDT SUNRIDGE   N/A         44  39  82  CALM    29.97S
#PENDLETON 7NW  N/A         48  40  74  E1      27.40F
#PILOT ROCK     N/A         43  34  70  CALM    29.97F
#TUTUILLA       N/A         43  37  79  CALM    29.95S
#UMAPINE 2E     N/A         47  41  79  SE3     29.91F
#WESTON SCHOOL  N/A         53  36  52  W1      29.92F

$$

ORZ508-220610-
SOUTHERN FOOTHILLS OF THE BLUES

CITY            SKY/WX      TMP DP  RH  WIND    PRES   REMARKS
LEXINGTON       CLEAR       48  39  71  E8      29.96F
#AJAX           N/A         49  35  58  CALM    29.88F
#CONDON SCHOOL  N/A         47  38  71  CALM    29.92F
#CONDON 5W      N/A         46  35  65  SW3     29.93S
#FOSSIL SCHOOL  N/A         43  37  79  CALM    29.94F
#HEPPNER EOC    N/A         46  38  73  CALM    29.89F
#HEPPNER 4NE    N/A         48  36  63  SE5     29.94F
#LEXINGTON 2SE  N/A         48  40  74  SE7     29.93F
#MIKKALO        N/A         47  38  71  SE2     29.93F
#OLEX 4N        N/A         49  42  77  S2      29.93S
#RUGGS 5NE      N/A         46  36  68  SW2     30.14S
#RUGGS 2SW      N/A         47  37  68  SW9     29.96F

$$

ORZ502-503-220610-
BLUE MOUNTAINS

CITY            SKY/WX      TMP DP  RH  WIND    PRES   REMARKS
MEACHAM         CLEAR       31  30  96  CALM    30.00S
#BATTLE MTN DOT N/A         39  37  92  S3      N/A
#HARDMAN 10S    N/A         40  34  79  CALM    30.03F
#HEPPNER 15SE   N/A         41  36  82  CALM    29.89S
#LADD CYN SMT   N/A         32  28  85  SE1     N/A
#LADD CREEK ODOTN/A         37  32  82  SW2     N/A
#N POWDER DOT   N/A         32  30  92  W9      N/A
#PIKES PEAK     N/A         51  35  54  S15     27.99S
#TROY SCHOOL    N/A         43  37  79  CALM    29.86R
#UKIAH          N/A         34  32  92  CALM    30.03S
#WESTON 4E      N/A         46  38  73  E7      29.92S
$$

ORZ505-220610-
JOHN DAY BASIN

CITY            SKY/WX      TMP DP  RH  WIND    PRES   REMARKS
JOHN DAY        CLEAR       43  35  73  E5      30.03S
#JOHN DAY KJDY  N/A         42  36  79  NE1     30.14S
#DAYVILLE SCHOOLN/A         49  37  63  SE2     29.98R
#MT. VERNON 5SE N/A         45  35  68  SE6     29.98S
#WINLOCK        N/A         42  35  76  CALM    30.06S
$$

ORZ506-220610-
OCHOCO AND JOHN DAY HIGHLANDS

CITY            SKY/WX      TMP DP  RH  WIND    PRES   REMARKS
#BUCK CREEK DOT N/A         42  39  89  SE1     N/A
#HORSE RIDGE DO N/A         45  34  65  SE7     N/A
#KEYES SMT DOT  N/A         48  -54  1  S12     N/A    WCI 43
#PAULINA SCHOOL N/A         40  32  73  CALM    30.01S
#PINE MTN OBS   N/A         36  32  85  S18G33  N/A    WCI 26
#PRAIRIE CITY   N/A         31  25  78  CALM    30.19R
#SENECA         N/A         32  N/A N/A S5      N/A
#SENECA 9NW     N/A         29  27  92  CALM    30.05R
$$

ORZ049-220610-
GRANDE RONDE VALLEY

CITY            SKY/WX      TMP DP  RH  WIND    PRES   REMARKS
LA GRANDE       CLEAR       36  25  64  CALM    30.00S
#COVE           N/A         39  34  82  N1      29.92F
#COVE SCHOOL    N/A         40  34  79  CALM    29.98F
#COVE 6NW       N/A         36  32  85  CALM    30.05S
#ELGIN 3N       N/A         36  30  79  CALM    29.75S
#ELGIN 1E       N/A         39  33  79  CALM    N/A
#IMBLER SCHOOL  N/A         63  35  35  SW3     29.84S
#ISLAND CITY 4N N/A         55  52  90  CALM    29.84F
#LADD CYN DOT   N/A         42  32  67  SE8     N/A
#UNION 1S       N/A         43  34  70  CALM    29.91S
$$

ORZ050-220610-
WALLOWA COUNTY

CITY            SKY/WX      TMP DP  RH  WIND    PRES   REMARKS
JOSEPH AIRPORT  CLEAR       37  34  89  S3      30.03F
#ENTERPRISE HS  N/A         37  34  89  CALM    30.03S
#IMNAHA SCHOOL  N/A         43  37  79  CALM    29.98R
#IMNAHA 10S     N/A         43  38  82  SW6     30.02S
#JOSEPH 3N      N/A         33  29  85  CALM    30.04S
#JOSEPH 3W      N/A         38  33  82  SW1     N/A
#LOSTINE        N/A         39  34  82  CALM    29.81S
#MT HOWARD 8000 N/A         31  26  81  SW10G24 30.03F
#PROMISE 1S     N/A         38  34  85  CALM    30.13S
#SHEEP RDG 7000 N/A         35  27  72  CALM    30.08S
#WALLOWA SCHOOL N/A         35  32  89  CALM    30.94R



$$



USA.gov is the U.S. government's official web portal to all federal, state and local government web resources and services.